User: anonymous   Login
Location: Unspecified
(0.0000°N, 0.0000°E)
Time: 18:17:27
(UTC+00:00)
Language:

Starlink (trailer) - Orbit

View from above orbital plane
View from above orbital plane
View from above satellite
View from above satellite

Ground track
Ground track

The orbit data is extracted from the following two-line orbital elements,

1 44284U 19029BB  19230.89782035 +.00000784 +00000-0 +73109-4 0  9993
2 44284 053.0028 142.3060 0000845 090.8287 269.2798 15.05497495012442
Epoch (UTC): 18 August 2019 21:32:51
Eccentricity: 0.0000845
inclination: 53.0028°
perigee height: 549 km
apogee height: 550 km
right ascension of ascending node: 142.3060°
argument of perigee: 90.8287°
revolutions per day: 15.05497495
mean anomaly at epoch: 269.2798°
orbit number at epoch: 1244

The dashed part of the orbit path shows where the satellite is in the earth's shadow,  

DLR